This is the latest recevied weather packets stored in our database for station/object WC4PEM-15. If no packets are shown the sender has not sent any weather packets the latest 10 day(s).
| Time | Temp. | Humidity | Pressure | Rain* | Wind** | Luminosity | Snow |
|---|---|---|---|---|---|---|---|
| 1777410330 | 30.56° C | 52% | 1017 hPa | 0 mm | - | - | - |
| 1777410224 | 30.56° C | 47% | 1016.9 hPa | 0 mm | - | - | - |
| 1777410030 | 30.56° C | 47% | 1016.9 hPa | 0 mm | - | - | - |
| 1777409730 | 31.11° C | 50% | 1017 hPa | 0 mm | - | - | - |
| 1777409527 | 31.11° C | 50% | 1017.1 hPa | 0 mm | - | - | - |
| 1777409430 | 31.11° C | 50% | 1017.1 hPa | 0 mm | - | - | - |
| 1777409130 | 31.11° C | 48% | 1017.4 hPa | 0 mm | - | - | - |
| 1777408830 | 31.11° C | 48% | 1017.4 hPa | 0 mm | - | - | - |
| 1777408530 | 31.11° C | 51% | 1017.5 hPa | 0 mm | - | - | - |
| 1777408345 | 31.11° C | 51% | 1017.8 hPa | 0 mm | - | - | - |
| 1777408230 | 31.11° C | 51% | 1017.8 hPa | 0 mm | - | - | - |
| 1777408082 | 31.11° C | 51% | 1017.7 hPa | 0 mm | - | - | - |
| 1777407930 | 31.11° C | 51% | 1017.7 hPa | 0 mm | - | - | - |
| 1777407713 | 30.56° C | 50% | 1017.7 hPa | 0 mm | - | - | - |
| 1777407630 | 30.56° C | 50% | 1017.7 hPa | 0 mm | - | - | - |
| 1777407330 | 31.11° C | 48% | 1017.8 hPa | 0 mm | - | - | - |
| 1777407211 | 31.67° C | 49% | 1017.9 hPa | 0 mm | - | - | - |
| 1777407030 | 31.67° C | 49% | 1017.9 hPa | 0 mm | - | - | - |
| 1777406901 | 31.11° C | 50% | 1018 hPa | 0 mm | - | - | - |
| 1777406731 | 31.11° C | 50% | 1018 hPa | 0 mm | - | - | - |
| 1777406515 | 31.11° C | 50% | 1018.1 hPa | 0 mm | - | - | - |
| 1777406430 | 31.11° C | 50% | 1018.1 hPa | 0 mm | - | - | - |
| 1777406315 | 31.11° C | 50% | 1018.2 hPa | 0 mm | - | - | - |
| 1777406130 | 31.11° C | 50% | 1018.2 hPa | 0 mm | - | - | - |
| 1777406017 | 31.11° C | 53% | 1018.3 hPa | 0 mm | - | - | - |
* Rain latest hour (hover to see other rain measurements)
** Current wind speed in m/s (hover to see current wind gust speed)